Regional Weather Roundup
Issued by NWS

Home | Current Version | Previous Version | Text Only | Print | Product List | Glossary Off
Versions: 1 2 3 4 5 6 7 8 9 10 11 12 13 14 15 16 17 18 19 20 21 22 23 24 25 26 27 28 29 30 31 32 33 34 35 36 37 38 39 40 41 42 43 44 45 46 47 48 49 50

000
ASUS43 KLOT 011958
RWRIL

ILLINOIS REGIONAL WEATHER ROUNDUP
NATIONAL WEATHER SERVICE CHICAGO/ROMEOVILLE IL
300 PM CDT FRI AUG 01 2014

NOTE: "FAIR" INDICATES FEW OR NO CLOUDS BELOW 12,000 FEET WITH NO
SIGNIFICANT WEATHER AND/OR OBSTRUCTIONS TO VISIBILITY.

* THESE STATIONS ARE NOT UNDER NWS QUALITY CONTROL. THEY ALSO MAY NOT
  REPORT WEATHER SUCH AS PRECIPITATION OR FOG.

ILZ001-002-007-009-015-016-024-012100-
NORTHWEST ILLINOIS

CITY           SKY/WX    TMP DP  RH WIND       PRES   REMARKS
MOLINE         MOSUNNY   82  61  48 VRB5      30.06F HX  83
$$

ILZ003-004-008-010-011-017-018-012100-
NORTH CENTRAL ILLINOIS

CITY           SKY/WX    TMP DP  RH WIND       PRES   REMARKS
ROCKFORD       NOT AVBL
$$

ILZ005-006-012>014-019>023-012100-
NORTHEAST ILLINOIS

CITY           SKY/WX    TMP DP  RH WIND       PRES   REMARKS
CHICAGO-OHARE  LGT RAIN  75  60  59 CALM      30.07S
CHICAGO-MIDWAY TSTM      75  64  68 SW9       30.07R
AURORA         MOSUNNY   82  60  47 VRB5      30.07S HX  82
WAUKEGAN       MOSUNNY   80  59  48 SE12      30.06S HX  81
DUPAGE AIRPORT PTSUNNY   80  60  50 NW9       30.06S HX  81
WHEELING       MOSUNNY   75  63  66 SE6       30.08S
NORTHERLY ISL    N/A     73  60  63 SE12        N/A
$$

LMZ740>746-012100-
SOUTHERN LAKE MICHIGAN

STATION/POSITION SKY/WX   TEMP    WIND        PRES    VSBY  WAVE
                          AIR SEA DIR/SP/G                  HT/PER
                          (F)     (DEG/KT/KT) (MB)    (MI)  (FT/S)
SOUTHERN BUOY              69 68  220/  2/  2 1018.5F         0
WAUKEGAN HARBOR            71     160/  8/ 10   N/A
HARRISON CRIB              75     170/  8/ 10   N/A
BURNHAM HARBOR             74     120/  7/ 11   N/A
CALUMET HARBOR             76     140/  5/  6 1017.2F
MICHIGAN CITY              73     340/  2/  3   N/A
MICHIGAN CITY 6N           72 71  100/  4/  6   N/A           0
ST. JOSEPH                 72 70  200/  2/  4   N/A           0
$$

ILZ025>027-034>036-040-047-049-050-058-095>099-012100-
WEST-CENTRAL ILLINOIS

CITY           SKY/WX    TMP DP  RH WIND       PRES   REMARKS
$$

ILZ028>032-037-038-041>044-048-051>054-059>061-012100-
CENTRAL ILLINOIS

CITY           SKY/WX    TMP DP  RH WIND       PRES   REMARKS
PEORIA         NOT AVBL
SPRINGFIELD    CLOUDY    66  63  88 SE7       30.10F
TAYLORVILLE    NOT AVBL
$$

ILZ033-039-045-046-055>057-062-063-012100-
EAST-CENTRAL ILLINOIS

CITY           SKY/WX    TMP DP  RH WIND       PRES   REMARKS
CHAMPAIGN      CLOUDY    78  63  59 SW8       30.08S HX  80
$$

ILZ079-100>102-012100-
SOUTHWEST ILLINOIS

CITY           SKY/WX    TMP DP  RH WIND       PRES   REMARKS
ALTON          CLOUDY    77  68  73 VRB5      30.06S
CAHOKIA*       MOSUNNY   85  58  39 SE5       30.04F HX  84
$$

ILZ064>066-069>071-074>076-080>082-084>086-088>090-092>094-012100-
SOUTH-CENTRAL ILLINOIS

CITY           SKY/WX    TMP DP  RH WIND       PRES   REMARKS
CARBONDALE     MOSUNNY   82  64  54 NE3       30.05F HX  83
MARION         MOSUNNY   84  59  42 W5        30.06F HX  84
$$

ILZ067-068-072-073-078-083-087-091-012100-
SOUTHEAST ILLINOIS

CITY           SKY/WX    TMP DP  RH WIND       PRES   REMARKS
$$

ABBREVIATIONS USED IN REMARKS
   TC - TEMPERATURE IN CELSIUS
  WCI - WIND CHILL INDEX
   HX - HEAT INDEX
  VSB - VISIBILITY
$$




USA.gov is the U.S. government's official web portal to all federal, state and local government web resources and services.